Location: Ash Swamp
(41.5170°N, 74.6157°W)
Time: 02:48:44
(UTC+00:00)

Cosmos 2322 Rocket - Pass Details

Date: 14 July 2020
Orbit: 832 x 851 km, 71.0° (Epoch: 14 August)

Event Time Altitude Azimuth Distance (km) Brightness Sun altitude
Rises 07:50:06 0° 345° (NNW) 3,405 5.9 -16.2°
Reaches altitude 10° 07:52:56 10° 357° (N) 2,469 5.3 -15.8°
Maximum altitude 07:57:42 27° 55° (NE) 1,567 4.4 -15.2°
Drops below altitude 10° 08:02:28 10° 112° (ESE) 2,469 4.9 -14.6°
Sets 08:05:17 0° 124° (SE) 3,403 5.5 -14.3°
